Simultaneous Nadir Overpasses (SNOs) Predictions

Prediction of SNOs between NOAA-20 and NOAA-19 Satellite Orbit:

Table of predicted SNOs for the next 14.0 days since TLE Epoch: 2/28/2020
Index Date (NOAA-20) Time (NOAA-20) Lat,Lon (NOAA-20) SZA (NOAA-20 ) Date (NOAA-19) Time (NOAA-19) Lat,Lon (NOAA-19) SZA (NOAA-19 ) Distance(km) Time Diff (sec)
1 03/05/2020 19:04:47 -79.52, 39.27 92.75 03/05/2020 19:03:43 -79.54, 39.22 92.70 1.99 64
2 03/05/2020 19:55:33 79.55,-153.63 87.28 03/05/2020 19:54:38 79.52,-153.68 87.29 3.18 55
3 03/05/2020 20:46:18 -79.56, 13.61 92.72 03/05/2020 20:45:44 -79.53, 13.63 92.73 3.19 34
4 03/05/2020 21:37:03 79.55,-179.02 87.26 03/05/2020 21:36:38 79.54,-178.99 87.26 1.36 25
5 03/05/2020 22:27:48 -79.56, -11.79 92.74 03/05/2020 22:27:44 -79.55, -11.68 92.76 2.49 4
6 03/05/2020 23:18:33 79.55, 155.59 87.24 03/05/2020 23:18:38 79.56, 155.70 87.23 2.47 5
7 03/06/2020 00:09:18 -79.56, -37.18 92.77 03/06/2020 00:09:45 -79.54, -37.28 92.79 3.27 27
8 03/06/2020 01:00:03 79.55, 130.19 87.21 03/06/2020 01:00:39 79.55, 130.11 87.20 1.84 36
9 03/06/2020 01:50:48 -79.56, -62.57 92.79 03/06/2020 01:51:45 -79.56, -62.59 92.82 0.82 57
10 03/06/2020 02:41:33 79.56, 104.80 87.19 03/06/2020 02:42:39 79.57, 104.80 87.17 1.20 66




NCC Satellite Simultaneous Nadir Overpasses (SNOs) Prediction Service
